| time (UTC) | temp F | wind direction | speed knots | gust knots | rain 1hr in | rain 24hr in | rain mn in | humidity % | barometer mb |
| 20260901212133 | 77 | 141 | 0.9 | 0.9 | 0.00 | 0.00 | 0.00 | 51 | 1015.5 |
| 20260901211627 | 77 | 108 | 1.7 | 1.7 | 0.00 | 0.00 | 0.00 | 46 | 1015.3 |
| 20260901211124 | 77 | 102 | 0.9 | 1.7 | 0.00 | 0.00 | 0.00 | 47 | 1015.3 |
| 20260901210620 | 77 | 148 | 0.9 | 1.7 | 0.00 | 0.00 | 0.00 | 45 | 1015.6 |
| 20260901210116 | 77 | 157 | 2.6 | 2.6 | 0.00 | 0.00 | 0.00 | 45 | 1015.4 |
| 20260901205611 | 77 | 142 | 0.9 | 1.7 | 0.00 | 0.00 | 0.00 | 46 | 1015.6 |
| 20260901205105 | 77 | 108 | 2.6 | 2.6 | 0.00 | 0.00 | 0.00 | 46 | 1015.6 |
| 20260901204602 | 77 | 182 | 2.6 | 2.6 | 0.00 | 0.00 | 0.00 | 47 | 1015.8 |
| 20260901204056 | 77 | 135 | 2.6 | 2.6 | 0.00 | 0.00 | 0.00 | 48 | 1015.5 |
| 20260901203550 | 77 | 149 | 2.6 | 2.6 | 0.00 | 0.00 | 0.00 | 48 | 1015.7 |
| 20260901203046 | 77 | 160 | 2.6 | 2.6 | 0.00 | 0.00 | 0.00 | 47 | 1015.6 |
| 20260901202545 | 77 | 158 | 1.7 | 1.7 | 0.00 | 0.00 | 0.00 | 49 | 1015.7 |
| 20260901202042 | 77 | 186 | 1.7 | 1.7 | 0.00 | 0.00 | 0.00 | 48 | 1015.7 |
| 20260901201537 | 77 | 179 | 1.7 | 1.7 | 0.00 | 0.00 | 0.00 | 48 | 1015.8 |
| 20260901201036 | 77 | 181 | 1.7 | 1.7 | 0.00 | 0.00 | 0.00 | 47 | 1015.6 |
| 20260901200536 | 77 | 190 | 1.7 | 1.7 | 0.00 | 0.00 | 0.00 | 48 | 1015.9 |
| 20260901200031 | 77 | 151 | 1.7 | 1.7 | 0.00 | 0.00 | 0.00 | 46 | 1016.0 |
| 20260901195528 | 77 | 156 | 0.9 | 0.9 | 0.00 | 0.00 | 0.00 | 46 | 1016.2 |
| 20260901195023 | 77 | 215 | 3.5 | 4.3 | 0.00 | 0.00 | 0.00 | 45 | 1016.1 |
| 20260901194518 | 77 | 222 | 3.5 | 5.2 | 0.00 | 0.00 | 0.00 | 44 | 1016.2 |
| 20260901194014 | 78 | 228 | 3.5 | 4.3 | 0.00 | 0.00 | 0.00 | 44 | 1016.0 |
| 20260901193513 | 78 | 201 | 1.7 | 1.7 | 0.00 | 0.00 | 0.00 | 42 | 1016.1 |
| 20260901193014 | 78 | 231 | 0.9 | 1.7 | 0.00 | 0.00 | 0.00 | 43 | 1016.2 |
| 20260901192509 | 79 | 331 | 2.6 | 2.6 | 0.00 | 0.00 | 0.00 | 42 | 1016.0 |
| 20260901192004 | 79 | 147 | 1.7 | 1.7 | 0.00 | 0.00 | 0.00 | 43 | 1016.2 |
| 20260901191500 | 79 | 177 | 2.6 | 2.6 | 0.00 | 0.00 | 0.00 | 41 | 1016.2 |
| 20260901190955 | 80 | 249 | 2.6 | 4.3 | 0.00 | 0.00 | 0.00 | 40 | 1016.2 |
| 20260901190451 | 79 | 189 | 5.2 | 6.1 | 0.00 | 0.00 | 0.00 | 41 | 1016.1 |
| 20260901185949 | 79 | 189 | 3.5 | 4.3 | 0.00 | 0.00 | 0.00 | 43 | 1016.2 |
| 20260901185443 | 79 | 188 | 2.6 | 2.6 | 0.00 | 0.00 | 0.00 | 44 | 1016.4 |
| 20260901184943 | 77 | 184 | 0.9 | 1.7 | 0.00 | 0.00 | 0.00 | 46 | 1016.3 |
| 20260901184439 | 78 | 224 | 3.5 | 4.3 | 0.00 | 0.00 | 0.00 | 45 | 1016.3 |
| 20260901183934 | 77 | 154 | 0.9 | 1.7 | 0.00 | 0.00 | 0.00 | 45 | 1016.3 |
| 20260901183433 | 76 | 189 | 2.6 | 2.6 | 0.00 | 0.00 | 0.00 | 44 | 1016.2 |
| 20260901182929 | 76 | 195 | 2.6 | 2.6 | 0.00 | 0.00 | 0.00 | 44 | 1016.3 |
| 20260901182425 | 77 | 145 | 0.9 | 0.9 | 0.00 | 0.00 | 0.00 | 45 | 1016.4 |
| 20260901181919 | 76 | 263 | 0.9 | 0.9 | 0.00 | 0.00 | 0.00 | 45 | 1016.3 |
| 20260901181414 | 77 | 203 | 1.7 | 1.7 | 0.00 | 0.00 | 0.00 | 44 | 1016.3 |
| 20260901180912 | 77 | 323 | 1.7 | 1.7 | 0.00 | 0.00 | 0.00 | 46 | 1016.2 |
| 20260901180407 | 76 | 43 | 2.6 | 2.6 | 0.00 | 0.00 | 0.00 | 48 | 1016.7 |
| 20260901175905 | 76 | 43 | 2.6 | 2.6 | 0.00 | 0.00 | 0.00 | 48 | 1016.7 |
| 20260901175400 | 76 | 4 | 0.0 | 0.0 | 0.00 | 0.00 | 0.00 | 47 | 1016.4 |
| 20260901174856 | 77 | 254 | 2.6 | 2.6 | 0.00 | 0.00 | 0.00 | 48 | 1016.6 |
| 20260901174352 | 76 | 162 | 0.9 | 0.9 | 0.00 | 0.00 | 0.00 | 51 | 1016.8 |
| 20260901173847 | 77 | 183 | 0.9 | 0.9 | 0.00 | 0.00 | 0.00 | 51 | 1016.7 |
| 20260901173341 | 76 | 146 | 1.7 | 1.7 | 0.00 | 0.00 | 0.00 | 51 | 1016.8 |
| 20260901172838 | 76 | 179 | 2.6 | 2.6 | 0.00 | 0.00 | 0.00 | 54 | 1016.9 |
| 20260901172337 | 77 | 197 | 2.6 | 2.6 | 0.00 | 0.00 | 0.00 | 52 | 1016.9 |
| 20260901171836 | 76 | 228 | 3.5 | 4.3 | 0.00 | 0.00 | 0.00 | 54 | 1016.8 |
| 20260901171335 | 77 | 77 | 0.0 | 0.9 | 0.00 | 0.00 | 0.00 | 50 | 1016.8 |
| 20260901170834 | 77 | 169 | 1.7 | 1.7 | 0.00 | 0.00 | 0.00 | 52 | 1016.9 |
| 20260901170328 | 76 | 149 | 1.7 | 1.7 | 0.00 | 0.00 | 0.00 | 55 | 1016.8 |
| 20260901165827 | 77 | 272 | 3.5 | 4.3 | 0.00 | 0.00 | 0.00 | 55 | 1017.0 |
| 20260901165322 | 76 | 136 | 0.9 | 1.7 | 0.00 | 0.00 | 0.00 | 52 | 1016.8 |
| 20260901164819 | 77 | 54 | 1.7 | 1.7 | 0.00 | 0.00 | 0.00 | 55 | 1016.7 |
| 20260901164314 | 76 | 104 | 0.9 | 1.7 | 0.00 | 0.00 | 0.00 | 54 | 1016.8 |
| 20260901163808 | 75 | 91 | 1.7 | 1.7 | 0.00 | 0.00 | 0.00 | 54 | 1016.8 |
| 20260901163303 | 75 | 99 | 1.7 | 1.7 | 0.00 | 0.00 | 0.00 | 57 | 1016.9 |
| 20260901162758 | 75 | 106 | 0.9 | 0.9 | 0.00 | 0.00 | 0.00 | 57 | 1017.0 |
| 20260901162257 | 75 | 161 | 2.6 | 4.3 | 0.00 | 0.00 | 0.00 | 55 | 1017.0 |
| 20260901161756 | 74 | 121 | 0.9 | 0.9 | 0.00 | 0.00 | 0.00 | 58 | 1016.9 |
| 20260901161250 | 74 | 45 | 0.9 | 0.9 | 0.00 | 0.00 | 0.00 | 56 | 1017.2 |
| 20260901160747 | 74 | 76 | 0.9 | 0.9 | 0.00 | 0.00 | 0.00 | 57 | 1017.0 |
| 20260901160243 | 73 | 135 | 0.9 | 0.9 | 0.00 | 0.00 | 0.00 | 56 | 1017.0 |
| 20260901155741 | 74 | 115 | 1.7 | 1.7 | 0.00 | 0.00 | 0.00 | 59 | 1016.8 |
| 20260901155236 | 74 | 94 | 0.0 | 0.0 | 0.00 | 0.00 | 0.00 | 59 | 1017.1 |
| 20260901154732 | 75 | 138 | 1.7 | 1.7 | 0.00 | 0.00 | 0.00 | 61 | 1016.8 |
| 20260901154226 | 75 | 74 | 0.0 | 0.0 | 0.00 | 0.00 | 0.00 | 58 | 1016.7 |
| 20260901153721 | 73 | 356 | 0.0 | 0.0 | 0.00 | 0.00 | 0.00 | 58 | 1017.0 |
| 20260901153220 | 72 | 106 | 0.9 | 0.9 | 0.00 | 0.00 | 0.00 | 65 | 1017.2 |
| 20260901152715 | 72 | 108 | 1.7 | 1.7 | 0.00 | 0.00 | 0.00 | 65 | 1016.8 |
| 20260901152213 | 71 | 155 | 1.7 | 1.7 | 0.00 | 0.00 | 0.00 | 64 | 1016.9 |
| 20260901151710 | 71 | 131 | 0.0 | 0.9 | 0.00 | 0.00 | 0.00 | 61 | 1016.8 |
| 20260901151209 | 72 | 125 | 1.7 | 1.7 | 0.00 | 0.00 | 0.00 | 61 | 1017.0 |
| 20260901150708 | 71 | 69 | 0.0 | 0.0 | 0.00 | 0.00 | 0.00 | 60 | 1017.0 |
| 20260901150206 | 70 | 86 | 0.0 | 0.0 | 0.00 | 0.00 | 0.00 | 63 | 1017.0 |
| 20260901145704 | 70 | 79 | 0.0 | 0.9 | 0.00 | 0.00 | 0.00 | 61 | 1016.8 |
| 20260901145159 | 68 | 71 | 0.0 | 0.0 | 0.00 | 0.00 | 0.00 | 64 | 1017.0 |
| 20260901144655 | 68 | 41 | 1.7 | 1.7 | 0.00 | 0.00 | 0.00 | 65 | 1017.1 |
| 20260901144149 | 67 | 318 | 0.9 | 1.7 | 0.00 | 0.00 | 0.00 | 65 | 1016.8 |
| 20260901143645 | 66 | 53 | 0.0 | 0.9 | 0.00 | 0.00 | 0.00 | 66 | 1017.1 |
| 20260901143141 | 66 | 65 | 0.0 | 0.0 | 0.00 | 0.00 | 0.00 | 68 | 1016.9 |
| 20260901142637 | 65 | 109 | 0.0 | 0.0 | 0.00 | 0.00 | 0.00 | 69 | 1017.2 |
| 20260901142136 | 64 | 171 | 0.0 | 0.0 | 0.00 | 0.00 | 0.00 | 68 | 1017.1 |
| 20260901141631 | 63 | 132 | 0.0 | 0.0 | 0.00 | 0.00 | 0.00 | 69 | 1017.2 |
| 20260901141131 | 65 | 200 | 4.3 | 5.2 | 0.00 | 0.00 | 0.00 | 70 | 1017.3 |
| 20260901140630 | 66 | 181 | 2.6 | 2.6 | 0.00 | 0.00 | 0.00 | 69 | 1017.4 |
| 20260901140129 | 65 | 59 | 0.0 | 0.9 | 0.00 | 0.00 | 0.00 | 67 | 1017.3 |
| 20260901135624 | 63 | 49 | 0.9 | 0.9 | 0.00 | 0.00 | 0.00 | 71 | 1017.0 |
| 20260901135119 | 62 | 35 | 0.9 | 0.9 | 0.00 | 0.00 | 0.00 | 71 | 1016.8 |
| 20260901134615 | 62 | 51 | 0.9 | 0.9 | 0.00 | 0.00 | 0.00 | 71 | 1016.8 |
| 20260901134110 | 62 | 65 | 0.0 | 0.0 | 0.00 | 0.00 | 0.00 | 71 | 1016.8 |
| 20260901133608 | 60 | 55 | 0.0 | 0.0 | 0.00 | 0.00 | 0.00 | 76 | 1017.0 |
| 20260901133108 | 60 | 36 | 0.0 | 0.0 | 0.00 | 0.00 | 0.00 | 73 | 1017.1 |
| 20260901132603 | 62 | 66 | 0.0 | 0.0 | 0.00 | 0.00 | 0.00 | 71 | 1017.2 |
| 20260901132102 | 61 | 65 | 0.0 | 0.0 | 0.00 | 0.00 | 0.00 | 71 | 1017.2 |
| 20260901131602 | 61 | 65 | 0.0 | 0.0 | 0.00 | 0.00 | 0.00 | 74 | 1017.1 |
| 20260901131057 | 59 | 65 | 0.0 | 0.0 | 0.00 | 0.00 | 0.00 | 76 | 1017.1 |
| 20260901130552 | 58 | 65 | 0.0 | 0.0 | 0.00 | 0.00 | 0.00 | 79 | 1017.1 |
| 20260901130050 | 57 | 64 | 0.0 | 0.0 | 0.00 | 0.00 | 0.00 | 79 | 1017.0 |
| 20260901125549 | 56 | 64 | 0.0 | 0.0 | 0.00 | 0.00 | 0.00 | 79 | 1016.7 |
| 20260901125045 | 57 | 62 | 0.0 | 0.0 | 0.00 | 0.00 | 0.00 | 79 | 1016.9 |
| 20260901124544 | 56 | 62 | 0.0 | 0.0 | 0.00 | 0.00 | 0.00 | 79 | 1016.8 |
| 20260901124039 | 55 | 62 | 0.0 | 0.0 | 0.00 | 0.00 | 0.00 | 80 | 1016.7 |
| 20260901123534 | 55 | 50 | 0.0 | 0.0 | 0.00 | 0.00 | 0.00 | 80 | 1016.8 |
| 20260901123033 | 54 | 22 | 0.0 | 0.0 | 0.00 | 0.00 | 0.00 | 80 | 1016.6 |
| 20260901122532 | 54 | 49 | 0.0 | 0.0 | 0.00 | 0.00 | 0.00 | 81 | 1016.6 |
| 20260901122026 | 54 | 29 | 0.9 | 0.9 | 0.00 | 0.00 | 0.00 | 80 | 1016.4 |
| 20260901121521 | 53 | 22 | 1.7 | 1.7 | 0.00 | 0.00 | 0.00 | 81 | 1016.7 |
| 20260901121016 | 53 | 66 | 0.0 | 0.0 | 0.00 | 0.00 | 0.00 | 81 | 1016.6 |
| 20260901120516 | 54 | 48 | 0.0 | 0.0 | 0.00 | 0.00 | 0.00 | 80 | 1016.6 |
| 20260901120012 | 54 | 11 | 1.7 | 1.7 | 0.00 | 0.00 | 0.00 | 80 | 1016.6 |
| 20260901115506 | 54 | 10 | 0.9 | 0.9 | 0.00 | 0.00 | 0.00 | 80 | 1016.4 |
| 20260901115004 | 53 | 22 | 0.0 | 0.0 | 0.00 | 0.00 | 0.00 | 81 | 1016.3 |
| 20260901114459 | 53 | 22 | 0.0 | 0.0 | 0.00 | 0.00 | 0.00 | 81 | 1016.3 |
| 20260901113956 | 53 | 42 | 0.0 | 0.0 | 0.00 | 0.00 | 0.00 | 82 | 1016.3 |
| 20260901113456 | 53 | 62 | 0.0 | 0.0 | 0.00 | 0.00 | 0.00 | 82 | 1016.4 |
| 20260901112951 | 53 | 56 | 0.0 | 0.0 | 0.00 | 0.00 | 0.00 | 83 | 1016.3 |
| 20260901112447 | 52 | 67 | 0.0 | 0.0 | 0.00 | 0.00 | 0.00 | 85 | 1016.3 |
| 20260901111942 | 51 | 82 | 0.0 | 0.0 | 0.00 | 0.00 | 0.00 | 85 | 1016.2 |
| 20260901111440 | 51 | 82 | 0.0 | 0.0 | 0.00 | 0.00 | 0.00 | 84 | 1016.1 |
| 20260901110938 | 52 | 83 | 0.0 | 0.0 | 0.00 | 0.00 | 0.00 | 83 | 1016.2 |
| 20260901110434 | 52 | 58 | 0.0 | 0.0 | 0.00 | 0.00 | 0.00 | 83 | 1016.0 |
| 20260901105930 | 53 | 57 | 0.0 | 0.0 | 0.00 | 0.00 | 0.00 | 83 | 1016.1 |
| 20260901105426 | 52 | 53 | 0.0 | 0.0 | 0.00 | 0.00 | 0.00 | 84 | 1016.0 |
| 20260901104921 | 52 | 70 | 0.0 | 0.0 | 0.00 | 0.00 | 0.00 | 84 | 1016.2 |
| 20260901104416 | 52 | 85 | 0.0 | 0.0 | 0.00 | 0.00 | 0.00 | 83 | 1016.2 |
| 20260901103912 | 53 | 82 | 0.0 | 0.9 | 0.00 | 0.00 | 0.00 | 81 | 1016.1 |
| 20260901103411 | 54 | 112 | 0.9 | 0.9 | 0.00 | 0.00 | 0.00 | 79 | 1016.0 |
| 20260901102907 | 55 | 57 | 0.0 | 0.9 | 0.00 | 0.00 | 0.00 | 78 | 1016.0 |
| 20260901102401 | 54 | 31 | 0.0 | 0.9 | 0.00 | 0.00 | 0.00 | 79 | 1016.0 |
| 20260901101856 | 53 | 68 | 0.0 | 0.0 | 0.00 | 0.00 | 0.00 | 80 | 1016.0 |
| 20260901101350 | 53 | 70 | 0.0 | 0.0 | 0.00 | 0.00 | 0.00 | 80 | 1016.0 |
| 20260901100850 | 54 | 70 | 0.0 | 0.0 | 0.00 | 0.00 | 0.00 | 79 | 1015.8 |
| 20260901100345 | 55 | 68 | 0.0 | 0.0 | 0.00 | 0.00 | 0.00 | 77 | 1015.8 |
| 20260901095838 | 56 | 53 | 0.0 | 0.0 | 0.00 | 0.00 | 0.00 | 76 | 1015.9 |
| 20260901095330 | 55 | 62 | 0.0 | 0.0 | 0.00 | 0.00 | 0.00 | 78 | 1016.0 |
| 20260901094824 | 55 | 73 | 0.0 | 0.0 | 0.00 | 0.00 | 0.00 | 77 | 1015.8 |
| 20260901094319 | 55 | 73 | 0.0 | 0.0 | 0.00 | 0.00 | 0.00 | 77 | 1015.8 |
| 20260901093815 | 55 | 73 | 0.0 | 0.0 | 0.00 | 0.00 | 0.00 | 77 | 1016.1 |
| 20260901093313 | 54 | 69 | 0.0 | 0.0 | 0.00 | 0.00 | 0.00 | 78 | 1016.0 |
| 20260901092810 | 54 | 74 | 0.0 | 0.0 | 0.00 | 0.00 | 0.00 | 79 | 1015.9 |
| 20260901092306 | 54 | 73 | 0.0 | 0.0 | 0.00 | 0.00 | 0.00 | 79 | 1016.0 |
| 20260901091801 | 54 | 90 | 0.0 | 0.0 | 0.00 | 0.00 | 0.00 | 79 | 1015.8 |
| 20260901091255 | 54 | 76 | 0.0 | 0.0 | 0.00 | 0.00 | 0.00 | 78 | 1015.7 |
| 20260901090750 | 54 | 51 | 0.9 | 0.9 | 0.00 | 0.00 | 0.00 | 78 | 1015.6 |
| 20260901090245 | 55 | 333 | 0.0 | 0.0 | 0.00 | 0.00 | 0.00 | 77 | 1015.8 |
| 20260901085741 | 55 | 332 | 0.9 | 0.9 | 0.00 | 0.00 | 0.00 | 76 | 1015.6 |
| 20260901085236 | 55 | 309 | 0.9 | 0.9 | 0.00 | 0.00 | 0.00 | 76 | 1015.7 |
| 20260901084732 | 56 | 301 | 0.9 | 0.9 | 0.00 | 0.00 | 0.00 | 75 | 1015.7 |
| 20260901084229 | 56 | 271 | 0.9 | 1.7 | 0.00 | 0.00 | 0.00 | 75 | 1015.5 |
| 20260901083728 | 55 | 143 | 0.9 | 0.9 | 0.00 | 0.00 | 0.00 | 76 | 1015.7 |
| 20260901083227 | 54 | 130 | 0.0 | 0.9 | 0.00 | 0.00 | 0.00 | 78 | 1015.4 |
| 20260901082726 | 54 | 102 | 0.0 | 0.0 | 0.00 | 0.00 | 0.00 | 78 | 1015.5 |
| 20260901082222 | 54 | 102 | 0.0 | 0.0 | 0.00 | 0.00 | 0.00 | 78 | 1015.5 |
| 20260901081718 | 55 | 153 | 1.7 | 1.7 | 0.00 | 0.00 | 0.00 | 77 | 1015.6 |
| 20260901081217 | 56 | 149 | 0.9 | 0.9 | 0.00 | 0.00 | 0.00 | 75 | 1015.3 |
| 20260901080712 | 57 | 87 | 0.9 | 0.9 | 0.00 | 0.00 | 0.00 | 73 | 1015.5 |
| 20260901080211 | 58 | 39 | 0.9 | 0.9 | 0.00 | 0.00 | 0.00 | 70 | 1015.6 |
| 20260901075712 | 59 | 31 | 0.9 | 0.9 | 0.00 | 0.00 | 0.00 | 69 | 1015.6 |
| 20260901075211 | 59 | 12 | 2.6 | 2.6 | 0.00 | 0.00 | 0.00 | 68 | 1015.4 |
| 20260901074706 | 59 | 26 | 2.6 | 2.6 | 0.00 | 0.00 | 0.00 | 68 | 1015.5 |
| 20260901074202 | 60 | 26 | 0.9 | 0.9 | 0.00 | 0.00 | 0.00 | 67 | 1015.6 |
| 20260901073658 | 61 | 353 | 1.7 | 1.7 | 0.00 | 0.00 | 0.00 | 65 | 1015.6 |
| 20260901073153 | 60 | 38 | 0.0 | 0.0 | 0.00 | 0.00 | 0.00 | 66 | 1015.6 |
| 20260901072648 | 59 | 64 | 0.0 | 0.0 | 0.00 | 0.00 | 0.00 | 68 | 1015.9 |
| 20260901072143 | 58 | 64 | 0.0 | 0.0 | 0.00 | 0.00 | 0.00 | 70 | 1015.7 |
| 20260901071642 | 57 | 64 | 0.0 | 0.0 | 0.00 | 0.00 | 0.00 | 71 | 1015.7 |
| 20260901071136 | 57 | 64 | 0.0 | 0.0 | 0.00 | 0.00 | 0.00 | 72 | 1015.7 |
| 20260901070630 | 57 | 65 | 0.0 | 0.0 | 0.00 | 0.00 | 0.00 | 74 | 1015.6 |
| 20260901070126 | 58 | 66 | 0.0 | 0.0 | 0.00 | 0.00 | 0.00 | 73 | 1015.9 |
| 20260901065615 | 57 | 63 | 0.0 | 0.0 | 0.00 | 0.00 | 0.00 | 72 | 1015.5 |
| 20260901065114 | 58 | 65 | 0.0 | 0.0 | 0.00 | 0.00 | 0.00 | 72 | 1015.6 |
| 20260901064612 | 61 | 56 | 0.0 | 0.0 | 0.00 | 0.00 | 0.00 | 66 | 1015.8 |
| 20260901064108 | 61 | 27 | 0.0 | 0.0 | 0.00 | 0.00 | 0.00 | 65 | 1015.7 |
| 20260901063604 | 61 | 4 | 0.0 | 0.0 | 0.00 | 0.00 | 0.00 | 65 | 1015.5 |
| 20260901063100 | 59 | 72 | 0.0 | 0.0 | 0.00 | 0.00 | 0.00 | 68 | 1015.7 |
| 20260901062550 | 59 | 73 | 0.0 | 0.0 | 0.00 | 0.00 | 0.00 | 68 | 1015.5 |
| 20260901062046 | 59 | 73 | 0.0 | 0.0 | 0.00 | 0.00 | 0.00 | 69 | 1015.5 |
| 20260901061543 | 58 | 74 | 0.0 | 0.0 | 0.00 | 0.00 | 0.00 | 70 | 1015.4 |
| 20260901061042 | 58 | 72 | 0.0 | 0.0 | 0.00 | 0.00 | 0.00 | 70 | 1015.6 |
| 20260901060537 | 57 | 82 | 0.0 | 0.0 | 0.00 | 0.00 | 0.00 | 72 | 1015.6 |
| 20260901060032 | 57 | 99 | 0.0 | 0.0 | 0.00 | 0.00 | 0.00 | 73 | 1015.6 |
| 20260901055528 | 57 | 99 | 0.0 | 0.0 | 0.00 | 0.00 | 0.00 | 73 | 1015.3 |
| 20260901055024 | 58 | 99 | 0.0 | 0.0 | 0.00 | 0.00 | 0.00 | 71 | 1015.6 |
| 20260901054521 | 59 | 95 | 0.0 | 0.0 | 0.00 | 0.00 | 0.00 | 69 | 1015.5 |
| 20260901054017 | 59 | 98 | 0.0 | 0.0 | 0.00 | 0.00 | 0.00 | 70 | 1015.5 |
| 20260901053512 | 59 | 110 | 0.0 | 0.0 | 0.00 | 0.00 | 0.00 | 70 | 1015.4 |
| 20260901053009 | 59 | 82 | 0.0 | 0.0 | 0.00 | 0.00 | 0.00 | 70 | 1015.3 |
| 20260901052503 | 58 | 93 | 0.0 | 0.0 | 0.00 | 0.00 | 0.00 | 71 | 1015.1 |
| 20260901052002 | 58 | 86 | 0.0 | 0.0 | 0.00 | 0.00 | 0.00 | 71 | 1015.3 |
| 20260901051453 | 59 | 121 | 0.0 | 0.0 | 0.00 | 0.00 | 0.00 | 70 | 1015.3 |
| 20260901050951 | 61 | 65 | 0.0 | 0.0 | 0.00 | 0.00 | 0.00 | 65 | 1015.4 |
| 20260901050446 | 61 | 51 | 0.0 | 0.0 | 0.00 | 0.00 | 0.00 | 64 | 1015.1 |
| 20260901045941 | 59 | 47 | 0.0 | 0.0 | 0.00 | 0.00 | 0.00 | 69 | 1015.3 |
| 20260901045436 | 60 | 60 | 0.0 | 0.9 | 0.00 | 0.00 | 0.00 | 66 | 1015.3 |
| 20260901044931 | 61 | 127 | 0.0 | 0.0 | 0.00 | 0.00 | 0.00 | 67 | 1015.2 |
| 20260901044427 | 63 | 47 | 0.0 | 0.0 | 0.00 | 0.00 | 0.00 | 60 | 1015.2 |
| 20260901043922 | 63 | 50 | 0.0 | 0.0 | 0.00 | 0.00 | 0.00 | 61 | 1015.0 |
| 20260901043418 | 62 | 39 | 0.0 | 0.0 | 0.00 | 0.00 | 0.00 | 62 | 1014.9 |
| 20260901042913 | 61 | 77 | 0.0 | 0.0 | 0.00 | 0.00 | 0.00 | 65 | 1015.0 |
| 20260901042412 | 60 | 76 | 0.0 | 0.0 | 0.00 | 0.00 | 0.00 | 66 | 1015.4 |
| 20260901041908 | 60 | 100 | 0.0 | 0.0 | 0.00 | 0.00 | 0.00 | 68 | 1015.1 |
| 20260901041403 | 62 | 104 | 0.0 | 0.0 | 0.00 | 0.00 | 0.00 | 66 | 1014.8 |
| 20260901040903 | 64 | 114 | 0.0 | 0.0 | 0.00 | 0.00 | 0.00 | 62 | 1014.8 |
| 20260901040402 | 64 | 28 | 0.0 | 0.0 | 0.00 | 0.00 | 0.00 | 60 | 1014.5 |
| 20260901035901 | 62 | 42 | 0.0 | 0.0 | 0.00 | 0.00 | 0.00 | 62 | 1014.6 |
| 20260901035400 | 62 | 72 | 0.0 | 0.0 | 0.00 | 0.00 | 0.00 | 63 | 1014.1 |
| 20260901034858 | 62 | 71 | 0.0 | 0.0 | 0.00 | 0.00 | 0.00 | 63 | 1014.3 |
| 20260901034354 | 63 | 71 | 0.0 | 0.0 | 0.00 | 0.00 | 0.00 | 61 | 1014.2 |
| 20260901033849 | 64 | 56 | 0.0 | 0.0 | 0.00 | 0.00 | 0.00 | 59 | 1014.1 |
| 20260901033348 | 65 | 43 | 0.0 | 0.0 | 0.00 | 0.00 | 0.00 | 57 | 1014.3 |
| 20260901032847 | 66 | 347 | 0.9 | 0.9 | 0.00 | 0.00 | 0.00 | 57 | 1014.1 |
| 20260901032346 | 65 | 2 | 0.9 | 0.9 | 0.00 | 0.00 | 0.00 | 58 | 1014.4 |
| 20260901031842 | 65 | 313 | 1.7 | 1.7 | 0.00 | 0.00 | 0.00 | 58 | 1014.2 |
| 20260901031337 | 65 | 15 | 0.0 | 0.0 | 0.00 | 0.00 | 0.00 | 58 | 1014.2 |
| 20260901030836 | 64 | 152 | 0.0 | 0.0 | 0.00 | 0.00 | 0.00 | 59 | 1014.2 |
| 20260901030332 | 65 | 125 | 0.0 | 0.0 | 0.00 | 0.00 | 0.00 | 59 | 1014.2 |
| 20260901025831 | 65 | 178 | 0.9 | 0.9 | 0.00 | 0.00 | 0.00 | 58 | 1014.3 |
| 20260901025326 | 66 | 177 | 0.0 | 0.9 | 0.00 | 0.00 | 0.00 | 58 | 1014.0 |
| 20260901024821 | 66 | 175 | 0.9 | 1.7 | 0.00 | 0.00 | 0.00 | 57 | 1014.0 |
| 20260901024320 | 66 | 173 | 0.9 | 0.9 | 0.00 | 0.00 | 0.00 | 57 | 1014.1 |
| 20260901023818 | 67 | 202 | 1.7 | 1.7 | 0.00 | 0.00 | 0.00 | 56 | 1013.8 |
| 20260901023313 | 67 | 191 | 0.9 | 0.9 | 0.00 | 0.00 | 0.00 | 55 | 1013.8 |
| 20260901022809 | 67 | 197 | 0.9 | 0.9 | 0.00 | 0.00 | 0.00 | 55 | 1013.5 |
| 20260901022306 | 68 | 215 | 0.9 | 1.7 | 0.00 | 0.00 | 0.00 | 55 | 1013.6 |
| 20260901021800 | 68 | 205 | 2.6 | 2.6 | 0.00 | 0.00 | 0.00 | 54 | 1013.6 |
| 20260901021256 | 68 | 182 | 0.9 | 1.7 | 0.00 | 0.00 | 0.00 | 54 | 1013.5 |
| 20260901020750 | 68 | 213 | 2.6 | 2.6 | 0.00 | 0.00 | 0.00 | 54 | 1013.4 |
| 20260901020245 | 69 | 230 | 2.6 | 2.6 | 0.00 | 0.00 | 0.00 | 53 | 1013.4 |
| 20260901015740 | 69 | 233 | 2.6 | 2.6 | 0.00 | 0.00 | 0.00 | 52 | 1013.4 |
| 20260901015237 | 70 | 220 | 0.9 | 0.9 | 0.00 | 0.00 | 0.00 | 52 | 1013.1 |
| 20260901014736 | 70 | 189 | 0.9 | 0.9 | 0.00 | 0.00 | 0.00 | 51 | 1013.1 |
| 20260901014232 | 71 | 222 | 2.6 | 2.6 | 0.00 | 0.00 | 0.00 | 50 | 1013.1 |
| 20260901013727 | 71 | 223 | 4.3 | 5.2 | 0.00 | 0.00 | 0.00 | 49 | 1013.0 |
| 20260901013223 | 72 | 176 | 1.7 | 1.7 | 0.00 | 0.00 | 0.00 | 49 | 1013.0 |
| 20260901012719 | 72 | 264 | 4.3 | 6.1 | 0.00 | 0.00 | 0.00 | 48 | 1012.9 |
| 20260901012219 | 73 | 273 | 2.6 | 2.6 | 0.00 | 0.00 | 0.00 | 48 | 1013.1 |
| 20260901011715 | 73 | 272 | 4.3 | 5.2 | 0.00 | 0.00 | 0.00 | 48 | 1013.0 |
| 20260901011214 | 73 | 285 | 2.6 | 2.6 | 0.00 | 0.00 | 0.00 | 48 | 1012.9 |
| 20260901010708 | 74 | 281 | 4.3 | 5.2 | 0.00 | 0.00 | 0.00 | 47 | 1012.9 |
| 20260901010203 | 74 | 256 | 2.6 | 2.6 | 0.00 | 0.00 | 0.00 | 47 | 1012.6 |
| 20260901005702 | 75 | 226 | 1.7 | 1.7 | 0.00 | 0.00 | 0.00 | 46 | 1012.9 |
| 20260901005158 | 76 | 242 | 1.7 | 1.7 | 0.00 | 0.00 | 0.00 | 45 | 1012.7 |
| 20260901004657 | 76 | 258 | 3.5 | 4.3 | 0.00 | 0.00 | 0.00 | 44 | 1012.6 |
| 20260901004151 | 77 | 221 | 5.2 | 6.1 | 0.00 | 0.00 | 0.00 | 44 | 1012.4 |
| 20260901003646 | 77 | 220 | 6.1 | 7.8 | 0.00 | 0.00 | 0.00 | 43 | 1012.5 |
| 20260901003145 | 77 | 230 | 2.6 | 4.3 | 0.00 | 0.00 | 0.00 | 43 | 1012.6 |
| 20260901002640 | 78 | 246 | 4.3 | 6.1 | 0.00 | 0.00 | 0.00 | 42 | 1012.6 |
| 20260901002134 | 78 | 190 | 4.3 | 6.1 | 0.00 | 0.00 | 0.00 | 42 | 1012.4 |
| 20260901001630 | 78 | 246 | 5.2 | 7.8 | 0.00 | 0.00 | 0.00 | 42 | 1012.4 |
| 20260901001125 | 79 | 233 | 7.8 | 11.3 | 0.00 | 0.00 | 0.00 | 41 | 1012.2 |
| 20260901000620 | 79 | 253 | 4.3 | 5.2 | 0.00 | 0.00 | 0.00 | 42 | 1012.3 |
| 20260901000115 | 79 | 232 | 6.1 | 7.8 | 0.00 | 0.00 | 0.00 | 41 | 1012.3 |
| 20260831235609 | 79 | 285 | 5.2 | 6.1 | 0.00 | 0.00 | 0.00 | 40 | 1012.4 |
| 20260831235104 | 79 | 290 | 7.8 | 9.6 | 0.00 | 0.00 | 0.00 | 40 | 1012.3 |
| 20260831234604 | 80 | 264 | 7.0 | 8.7 | 0.00 | 0.00 | 0.00 | 40 | 1012.4 |
| 20260831234100 | 80 | 221 | 3.5 | 5.2 | 0.00 | 0.00 | 0.00 | 41 | 1012.2 |
| 20260831233555 | 80 | 220 | 6.1 | 7.0 | 0.00 | 0.00 | 0.00 | 40 | 1012.4 |
| 20260831233050 | 80 | 187 | 5.2 | 7.0 | 0.00 | 0.00 | 0.00 | 40 | 1012.5 |
| 20260831232545 | 80 | 285 | 5.2 | 7.0 | 0.00 | 0.00 | 0.00 | 39 | 1012.4 |
| 20260831232041 | 80 | 221 | 4.3 | 7.8 | 0.00 | 0.00 | 0.00 | 40 | 1012.2 |
| 20260831231537 | 80 | 269 | 6.1 | 7.8 | 0.00 | 0.00 | 0.00 | 39 | 1012.2 |
| 20260831231033 | 81 | 258 | 8.7 | 11.3 | 0.00 | 0.00 | 0.00 | 39 | 1012.2 |
| 20260831230528 | 80 | 236 | 13.0 | 18.2 | 0.00 | 0.00 | 0.00 | 38 | 1012.3 |
| 20260831230023 | 80 | 242 | 7.8 | 9.6 | 0.00 | 0.00 | 0.00 | 38 | 1012.0 |
| 20260831225520 | 81 | 224 | 5.2 | 5.2 | 0.00 | 0.00 | 0.00 | 39 | 1012.1 |
| 20260831225018 | 81 | 262 | 8.7 | 13.0 | 0.00 | 0.00 | 0.00 | 38 | 1011.9 |
| 20260831224514 | 81 | 227 | 10.4 | 13.0 | 0.00 | 0.00 | 0.00 | 37 | 1012.1 |
| 20260831224009 | 81 | 223 | 9.6 | 13.9 | 0.00 | 0.00 | 0.00 | 37 | 1012.0 |
| 20260831223504 | 81 | 211 | 7.8 | 11.3 | 0.00 | 0.00 | 0.00 | 38 | 1012.0 |
| 20260831223000 | 81 | 234 | 7.8 | 9.6 | 0.00 | 0.00 | 0.00 | 37 | 1011.8 |
| 20260831222456 | 81 | 259 | 6.1 | 7.8 | 0.00 | 0.00 | 0.00 | 37 | 1011.8 |
| 20260831221955 | 81 | 251 | 4.3 | 6.1 | 0.00 | 0.00 | 0.00 | 37 | 1012.0 |
| 20260831221451 | 81 | 220 | 7.8 | 11.3 | 0.00 | 0.00 | 0.00 | 37 | 1012.1 |
| 20260831220946 | 81 | 243 | 11.3 | 13.9 | 0.00 | 0.00 | 0.00 | 36 | 1011.9 |
| 20260831220442 | 81 | 249 | 7.8 | 11.3 | 0.00 | 0.00 | 0.00 | 37 | 1012.0 |
| 20260831215936 | 81 | 277 | 13.0 | 17.4 | 0.00 | 0.00 | 0.00 | 36 | 1012.1 |
| 20260831215432 | 81 | 218 | 8.7 | 11.3 | 0.00 | 0.00 | 0.00 | 36 | 1012.0 |
| 20260831214929 | 81 | 198 | 8.7 | 11.3 | 0.00 | 0.00 | 0.00 | 36 | 1011.9 |
| 20260831214426 | 81 | 235 | 12.2 | 15.6 | 0.00 | 0.00 | 0.00 | 35 | 1011.9 |
| 20260831213921 | 81 | 242 | 10.4 | 13.0 | 0.00 | 0.00 | 0.00 | 36 | 1011.9 |
| 20260831213418 | 81 | 219 | 8.7 | 9.6 | 0.00 | 0.00 | 0.00 | 36 | 1011.9 |
| 20260831212917 | 81 | 249 | 12.2 | 13.9 | 0.00 | 0.00 | 0.00 | 35 | 1012.1 |
| 20260831212414 | 81 | 210 | 12.2 | 14.8 | 0.00 | 0.00 | 0.00 | 35 | 1012.1 |